SCP
0 0 0 0 0 0 0 0 0 0 0 0 0 0 0 0 0 0 0 0 0 0 0 0 0 0 0 0 0 0 0 0 0 0 0 0 0 0 0 0 0 0 0 0
0 0 0 0 0 0 0 0 0 0 0 0 0 0 0 0 0 0 0 0 0 0 0 0 0 0 0 0 0 0 0 0 0 0 0 0 0 0 0 0 0 0 0 0
0 0 0 0 0 0 0 0 0 0 0 0 0 0 0 0 0 0 0 0 0 0 0 0 0 0 0 0 0 0 0 0 0 0 0 0 0 0 0 0 0 0 0 0
0 0 0 0 0 0 0 0 0 0 0 0 0 0 0 0 0 0 0 0 0 0 0 0 0 0 0 0 0 0 0 0 0 0 0 0 0 0 0 0 0 0 0 0
0 0 0 0 0 0 0 0 0 0 0 0 0 0 0 0 0 0 0 0 0 0 0 0 0 0 0 0 0 0 0 0 0 0 0 0 0 0 0 0 0 0 0 0
0 0 0 0 0 0 0 0 0 0 0 0 0 0 0 0 0 0 0 0 0 0 0 0 0 0 0 0 0 0 0 0 0 0 0 0 0 0 0 0 0 0 0 0
0 0 0 0 0 0 0 0 0 0 0 0 0 0 0 0 0 0 0 0 0 0 0 0 0 0 0 0 0 0 0 0 0 0 0 0 0 0 0 0 0 0 0 0
0 0 0 0 0 0 0 0 0 0 0 0 0 0 0 0 0 0 0 0 0 0 0 0 0 0 0 0 0 0 0 0 0 0 0 0 0 0 0 0 0 0 0 0
0 0 0 0 0 0 0 0 0 0 0 0 0 0 0 0 0 0 0 0 0 0 0 0 0 0 0 0 0 0 0 0 0 0 0 0 0 0 0 0 0 0 0 0
0 0 0 0 0 0 0 0 0 0 0 0 0 0 0 0 0 0 0 0 0 0 0 0 0 0 0 0 0 0 0 0 0 0 0 0 0 0 0 0 0 0 0 0
0 0 0 0 0 0 0 0 0 0 0 0 0 0 0 0 0 0 0 0 0 0 0 0 0 0 0 0 0 0 0 0 0 0 0 0 0 0 0 0 0 0 0 0
0 0 0 0 0 0 0 0 0 0 0 0 0 0 0 0 0 0 0 0 0 0 0 0 0 0 0 0 0 0 0 0 0 0 0 0 0 0 0 0 0 0 0 0
0 0 0 0 0 0 0 0 0 0 0 0 0 0 0 0 0 0 0 0 0 0 0 0 0 0 0 0 0 0 0 0 0 0 0 0 0 0 0 0 0 0 0 0
0 0 0 0 0 0 0 0 0 0 0 0 0 0 0 0 0 0 0 0 0 0 0 0 0 0 0 0 0 0 0 0 0 0 0 0 0 0 0 0 0 0 0 0
0 0 0 0 0 0 0 0 0 0 0 0 0 0 0 0 0 0 0 0 0 0 0 0 0 0 0 0 0 0 0 0 0 0 0 0 0 0 0 0 0 0 0 0
0 0 0 0 0 0 0 0 0 0 0 0 0 0 0 0 0 0 0 0 0 0 0 0 0 0 0 0 0 0 0 0 0 0 0 0 0 0 0 0 0 0 0 0
0 0 0 0 0 0 0 0 0 0 0 0 0 0 0 0 0 0 0 0 0 0 0 0 0 0 0 0 0 0 0 0 0 0 0 0 0 0 0 0 0 0 0 0
0 0 0 0 0 0 0 0 0 0 0 0 0 0 0 0 0 0 0 0 0 0 0 0 0 0 0 0 0 0 0 0 0 0 0 0 0 0 0 0 0 0 0 0
0 0 0 0 0 0 0 0 0 0 0 0 0 0 0 0 0 0 0 0 0 0 0 0 0 0 0 0 0 0 0 0 0 0 0 0 0 0 0 0 0 0 0 0
0 0 0 0 0 0 0 0 0 0 0 0 0 0 0 0 0 0 0 0 0 0 0 0 0 0 0 0 0 0 0 0 0 0 0 0 0 0 0 0 0 0 0 0
0 0 0 0 0 0 0 0 0 0 0 0 0 0 0 0 0 0 0 0 0 0 0 0 0 0 0 0 0 0 0 0 0 0 0 0 0 0 0 0 0 0 0 0
0 0 0 0 0 0 0 0 0 0 0 0 0 0 0 0 0 0 0 0 0 0 0 0 0 0 0 0 0 0 0 0 0 0 0 0 0 0 0 0 0 0 0 0
0 0 0 0 0 0 0 0 0 0 0 0 0 0 0 0 0 0 0 0 0 0 0 0 0 0 0 0 0 0 0 0 0 0 0 0 0 0 0 0 0 0 0 0
0 0 0 0 0 0 0 0 0 0 0 0 0 0 0 0 0 0 0 0 0 0 0 0 0 0 0 0 0 0 0 0 0 0 0 0 0 0 0 0 0 0 0 0
0 0 0 0 0 0 0 0 0 0 0 0 0 0 0 0 0 0 0 0 0 0 0 0 0 0 0 0 0 0 0 0 0 0 0 0 0 0 0 0 0 0 0 0
0 0 0 0 0 0 0 0 0 0 0 0 0 0 0 0 0 0 0 0 0 0 0 0 0 0 0 0 0 0 0 0 0 0 0 0 0 0 0 0 0 0 0 0
0 0 0 0 0 0 0 0 0 0 0 0 0 0 0 0 0 0 0 0 0 0 0 0 0 0 0 0 0 0 0 0 0 0 0 0 0 0 0 0 0 0 0 0
Wind_Speed_500mb
33 40 39 33 31 24 29 21 3 11 36 13 13 15 11 14 13 12 11 6 10 12 10 13 16 16 13 14 14 8 12 6 9 16 17 17 13 18 14 13 12 8 21 29
20 23 26 27 27 27 28 15 11 23 49 10 17 9 15 20 12 17 10 12 16 5 10 8 14 13 22 19 7 5 4 3 4 15 10 5 5 7 4 8 4 15 20 12
24 22 26 29 31 32 39 19 7 11 37 28 9 20 21 22 20 24 25 8 8 6 12 10 4 3 6 13 12 11 6 6 11 12 19 21 13 18 20 6 10 21 26 38
26 33 30 24 23 37 45 23 8 18 11 18 21 10 5 29 18 17 6 7 19 15 10 12 24 18 7 17 14 6 2 8 3 17 20 19 20 26 36 31 31 24 45 44
20 19 18 24 23 37 40 14 11 12 4 28 27 25 11 19 10 17 14 16 7 15 17 11 2 6 3 4 2 7 5 7 6 12 11 20 30 43 37 37 41 44 43 47
25 25 25 18 16 33 18 22 17 8 16 7 10 23 24 11 10 10 4 4 6 6 6 21 16 5 8 2 6 7 5 7 4 12 4 8 14 36 40 37 39 39 36 25
29 36 33 25 22 27 20 20 14 5 5 12 13 3 16 16 14 8 8 7 10 14 12 8 3 6 17 24 25 25 9 9 6 8 9 7 17 5 11 17 24 12 11 6
34 31 37 34 26 24 24 19 13 10 4 14 11 12 9 6 18 4 14 10 15 20 13 6 9 8 11 12 23 24 32 13 6 7 13 18 31 12 5 7 13 5 7 10
33 33 29 29 25 27 29 23 24 9 2 8 10 15 21 7 8 7 10 15 18 15 7 5 10 10 9 8 8 7 3 14 12 4 9 15 2 11 14 6 15 18 17 11
47 46 42 37 32 31 31 28 27 21 9 9 16 10 15 23 19 6 13 14 11 21 6 5 8 8 10 7 10 9 5 2 19 24 15 13 2 9 14 7 23 17 29 23
44 44 43 39 40 47 47 54 42 42 16 18 22 32 23 23 28 8 20 12 4 4 6 8 8 6 11 3 8 9 12 11 9 3 4 14 4 11 12 9 3 15 24 27
44 49 49 46 49 50 45 49 43 47 32 15 23 50 42 34 35 37 46 8 15 22 6 5 4 3 3 9 7 8 5 15 8 13 11 9 16 21 25 25 36 45 49 58
49 47 52 54 53 57 56 55 47 39 38 36 51 57 57 56 50 38 28 28 19 17 20 11 6 9 7 8 11 8 10 34 10 11 18 34 68 65 68 71 65 61 54 59
49 52 53 54 54 58 56 61 60 59 22 11 33 45 47 54 66 63 54 43 26 32 27 11 8 9 20 11 17 15 26 7 19 22 25 52 57 64 68 68 74 72 65 55
44 47 47 51 52 52 52 52 67 63 58 4 8 26 44 43 46 56 74 69 58 35 17 10 10 13 15 12 7 17 50 44 23 21 48 42 46 61 61 54 55 52 51 56
46 49 50 48 50 47 42 31 72 75 74 17 7 20 24 42 46 49 52 63 62 50 26 16 25 48 22 9 17 42 57 53 60 53 65 64 68 72 73 63 51 58 62 58
47 48 48 45 46 47 54 15 22 46 82 22 7 6 27 44 48 56 51 49 40 38 34 22 35 25 19 10 23 44 53 58 64 72 61 53 60 47 50 51 50 50 50 48
48 45 43 44 46 50 60 65 52 26 52 16 4 5 9 39 24 21 37 28 37 33 25 14 19 15 17 13 29 51 56 64 71 71 63 63 61 55 50 50 51 48 43 41
37 37 35 37 48 53 57 48 58 61 41 8 8 11 8 32 15 15 26 25 8 17 9 13 14 9 13 16 39 54 67 59 62 54 48 46 43 40 39 39 39 38 38 38
28 29 22 16 32 47 31 29 28 47 39 32 7 27 9 36 24 15 15 13 6 7 13 14 10 21 64 64 76 71 53 48 49 39 45 45 38 35 37 39 35 32 32 34
25 16 19 14 14 42 26 21 18 17 8 16 24 46 10 22 8 8 23 7 6 7 9 15 8 8 27 66 68 67 66 63 55 47 42 41 37 34 32 32 31 30 30 31
21 9 11 25 23 17 10 13 8 9 12 18 9 20 33 21 16 6 13 8 10 11 7 6 7 9 46 44 45 47 46 45 38 34 33 31 29 27 28 28 29 29 31 32
33 17 11 12 14 17 15 18 6 6 7 18 22 8 23 16 21 7 9 13 12 15 8 9 9 21 32 36 36 38 37 32 29 25 24 24 24 24 25 26 28 30 32 34
19 15 13 14 10 8 7 10 9 15 20 46 38 13 8 15 11 7 9 6 7 9 8 13 8 36 32 35 37 36 31 27 24 22 22 22 22 21 22 25 28 33 35 37
16 13 12 14 10 5 6 7 15 18 26 43 19 6 12 5 7 7 7 10 9 12 11 9 18 28 30 34 35 34 30 28 26 23 22 19 18 19 21 27 30 35 36 37
19 15 4 4 3 3 6 9 9 18 34 27 12 6 6 9 6 12 12 14 14 9 7 11 20 23 27 29 30 28 26 25 22 19 17 16 16 19 22 24 29 30 33 32
17 5 9 8 7 8 5 7 8 30 31 6 5 13 14 3 6 9 8 10 7 8 17 15 16 20 25 27 26 25 23 22 19 15 12 12 16 20 22 22 24 25 25 25
Wind_Direction_500mb
192 198 200 202 213 198 194 190 193 185 171 161 202 214 187 230 218 255 255 280 272 259 281 282 260 240 251 84 122 169 202 188 237 241 288 310 275 266 266 247 254 243 257 258
200 209 214 211 205 202 193 185 177 181 173 202 214 214 216 227 198 207 203 231 222 259 244 238 241 246 76 82 68 38 40 241 320 322 288 70 88 42 0 304 255 247 267 267
245 244 235 235 221 209 193 171 158 168 203 239 255 212 219 212 211 240 236 233 268 257 246 259 276 280 127 106 103 97 56 225 181 230 262 324 301 291 274 255 277 286 274 287
254 262 255 243 222 195 189 179 213 182 191 218 229 273 220 217 200 212 208 247 232 220 236 256 248 252 342 118 129 114 131 252 267 278 290 305 295 277 274 273 266 257 272 280
207 225 233 217 212 188 184 198 177 182 333 194 201 217 228 225 235 161 201 230 231 232 235 188 248 84 56 239 89 139 157 254 19 286 276 270 269 266 270 270 268 267 267 269
216 208 224 216 198 186 199 213 181 163 169 169 178 212 215 208 205 225 184 238 258 196 12 66 78 51 347 320 159 180 206 163 138 254 35 345 299 248 249 256 260 265 273 284
216 206 214 218 218 199 195 193 164 174 203 195 196 192 201 208 195 221 128 177 167 116 121 87 33 281 255 248 243 221 217 156 169 258 47 247 251 117 327 275 274 283 280 167
218 212 213 218 221 236 226 203 182 178 264 202 205 190 152 229 178 135 152 140 128 140 86 70 5 328 360 257 234 218 224 215 243 202 207 280 306 299 339 95 280 209 210 198
211 206 204 211 214 216 219 225 200 193 139 247 212 178 183 165 143 146 152 139 147 151 136 121 185 215 197 298 326 28 192 213 197 182 200 225 283 106 122 113 269 219 192 163
229 226 216 210 208 207 213 225 209 202 209 254 184 172 191 189 173 128 126 142 150 165 177 154 186 234 164 208 185 196 125 296 217 233 248 271 271 120 112 138 270 166 184 183
228 228 237 248 235 223 213 225 220 214 208 229 206 207 182 170 185 140 143 103 208 157 185 167 206 188 211 195 218 181 157 169 217 163 219 279 162 132 173 233 104 198 204 250
237 230 226 236 240 239 231 238 242 219 222 235 219 225 222 221 214 197 168 165 152 171 157 199 178 182 212 169 229 160 245 205 197 178 203 228 216 233 240 268 282 280 271 281
235 240 239 239 232 229 231 236 236 227 228 247 250 235 233 225 215 206 186 214 198 198 191 189 185 229 149 180 229 249 246 232 226 245 248 258 265 269 270 275 281 284 279 284
239 234 238 242 241 233 231 230 230 227 228 224 255 248 233 232 226 220 216 223 205 223 219 224 205 219 212 221 234 214 225 160 230 250 252 259 266 268 271 273 273 277 280 283
250 248 245 241 238 235 239 239 236 236 203 221 225 244 234 236 222 219 222 223 224 220 200 216 222 233 245 239 233 233 233 236 239 249 251 253 265 277 280 272 273 281 282 285
245 247 250 244 240 243 244 239 241 238 230 232 207 214 201 218 213 216 220 224 224 219 221 227 240 240 219 226 244 243 239 239 247 254 260 262 272 280 279 275 274 284 286 279
247 246 245 248 239 235 225 225 242 227 218 211 208 170 211 212 206 214 218 220 213 214 225 228 239 231 218 235 239 240 255 257 256 256 260 269 274 270 272 273 274 276 271 265
247 248 248 247 239 236 239 238 247 225 198 218 238 151 162 182 179 186 198 202 211 212 219 225 226 233 220 249 251 256 259 259 261 262 263 266 269 269 271 273 274 271 264 261
247 245 247 245 234 231 235 237 238 243 221 213 180 161 204 175 169 167 175 189 188 211 211 224 197 222 225 227 248 250 251 246 252 260 261 263 265 270 270 268 265 263 263 267
238 233 224 226 224 224 220 213 210 199 204 205 186 182 186 168 164 175 147 187 204 200 224 179 202 237 242 249 251 256 258 256 257 250 261 266 267 266 267 268 268 261 258 262
216 216 215 219 176 183 193 206 196 179 197 194 191 194 147 178 145 170 195 170 193 200 243 171 220 241 233 245 249 256 260 261 260 262 264 270 273 273 265 261 257 256 259 262
210 209 221 189 200 204 231 182 189 206 200 181 169 179 191 166 162 159 176 191 187 217 143 134 241 218 245 249 240 235 242 249 255 261 262 260 257 256 253 250 251 255 259 265
230 221 218 232 188 212 199 176 200 182 158 158 155 150 152 150 182 178 173 210 206 117 171 220 220 222 231 225 232 236 240 243 247 250 252 251 247 243 242 247 254 263 272 280
217 183 204 218 205 233 181 185 176 176 172 174 174 132 155 167 181 179 204 146 123 192 203 224 223 228 240 237 234 228 222 225 228 232 234 233 238 248 259 267 274 281 288 290
197 233 217 202 168 138 143 146 138 160 184 151 146 136 159 158 209 182 109 176 211 205 214 213 215 211 220 223 225 221 219 213 213 219 220 230 246 263 278 289 294 295 295 297
195 226 250 342 41 86 147 173 171 173 161 146 126 149 195 213 197 172 200 170 211 226 210 160 175 193 206 213 212 206 206 208 204 204 219 242 266 284 292 295 298 304 307 309
167 161 181 119 112 111 104 124 161 164 160 175 157 190 197 121 210 195 177 205 210 137 135 154 184 197 192 194 197 199 198 196 201 217 238 266 285 296 304 312 311 315 317 315
Wind_Speed_850mb
33 40 39 33 31 24 29 21 3 11 36 13 13 15 11 14 13 12 11 6 10 12 10 13 16 16 13 14 14 8 12 6 9 16 17 17 13 18 14 13 12 8 21 29
20 23 26 27 27 27 28 15 11 23 49 10 17 9 15 20 12 17 10 12 16 5 10 8 14 13 22 19 7 5 4 3 4 15 10 5 5 7 4 8 4 15 20 12
24 22 26 29 31 32 39 19 7 11 37 28 9 20 21 22 20 24 25 8 8 6 12 10 4 3 6 13 12 11 6 6 11 12 19 21 13 18 20 6 10 21 26 38
26 33 30 24 23 37 45 23 8 18 11 18 21 10 5 29 18 17 6 7 19 15 10 12 24 18 7 17 14 6 2 8 3 17 20 19 20 26 36 31 31 24 45 44
20 19 18 24 23 37 40 14 11 12 4 28 27 25 11 19 10 17 14 16 7 15 17 11 2 6 3 4 2 7 5 7 6 12 11 20 30 43 37 37 41 44 43 47
25 25 25 18 16 33 18 22 17 8 16 7 10 23 24 11 10 10 4 4 6 6 6 21 16 5 8 2 6 7 5 7 4 12 4 8 14 36 40 37 39 39 36 25
29 36 33 25 22 27 20 20 14 5 5 12 13 3 16 16 14 8 8 7 10 14 12 8 3 6 17 24 25 25 9 9 6 8 9 7 17 5 11 17 24 12 11 6
34 31 37 34 26 24 24 19 13 10 4 14 11 12 9 6 18 4 14 10 15 20 13 6 9 8 11 12 23 24 32 13 6 7 13 18 31 12 5 7 13 5 7 10
33 33 29 29 25 27 29 23 24 9 2 8 10 15 21 7 8 7 10 15 18 15 7 5 10 10 9 8 8 7 3 14 12 4 9 15 2 11 14 6 15 18 17 11
47 46 42 37 32 31 31 28 27 21 9 9 16 10 15 23 19 6 13 14 11 21 6 5 8 8 10 7 10 9 5 2 19 24 15 13 2 9 14 7 23 17 29 23
44 44 43 39 40 47 47 54 42 42 16 18 22 32 23 23 28 8 20 12 4 4 6 8 8 6 11 3 8 9 12 11 9 3 4 14 4 11 12 9 3 15 24 27
44 49 49 46 49 50 45 49 43 47 32 15 23 50 42 34 35 37 46 8 15 22 6 5 4 3 3 9 7 8 5 15 8 13 11 9 16 21 25 25 36 45 49 58
49 47 52 54 53 57 56 55 47 39 38 36 51 57 57 56 50 38 28 28 19 17 20 11 6 9 7 8 11 8 10 34 10 11 18 34 68 65 68 71 65 61 54 59
49 52 53 54 54 58 56 61 60 59 22 11 33 45 47 54 66 63 54 43 26 32 27 11 8 9 20 11 17 15 26 7 19 22 25 52 57 64 68 68 74 72 65 55
44 47 47 51 52 52 52 52 67 63 58 4 8 26 44 43 46 56 74 69 58 35 17 10 10 13 15 12 7 17 50 44 23 21 48 42 46 61 61 54 55 52 51 56
46 49 50 48 50 47 42 31 72 75 74 17 7 20 24 42 46 49 52 63 62 50 26 16 25 48 22 9 17 42 57 53 60 53 65 64 68 72 73 63 51 58 62 58
47 48 48 45 46 47 54 15 22 46 82 22 7 6 27 44 48 56 51 49 40 38 34 22 35 25 19 10 23 44 53 58 64 72 61 53 60 47 50 51 50 50 50 48
48 45 43 44 46 50 60 65 52 26 52 16 4 5 9 39 24 21 37 28 37 33 25 14 19 15 17 13 29 51 56 64 71 71 63 63 61 55 50 50 51 48 43 41
37 37 35 37 48 53 57 48 58 61 41 8 8 11 8 32 15 15 26 25 8 17 9 13 14 9 13 16 39 54 67 59 62 54 48 46 43 40 39 39 39 38 38 38
28 29 22 16 32 47 31 29 28 47 39 32 7 27 9 36 24 15 15 13 6 7 13 14 10 21 64 64 76 71 53 48 49 39 45 45 38 35 37 39 35 32 32 34
25 16 19 14 14 42 26 21 18 17 8 16 24 46 10 22 8 8 23 7 6 7 9 15 8 8 27 66 68 67 66 63 55 47 42 41 37 34 32 32 31 30 30 31
21 9 11 25 23 17 10 13 8 9 12 18 9 20 33 21 16 6 13 8 10 11 7 6 7 9 46 44 45 47 46 45 38 34 33 31 29 27 28 28 29 29 31 32
33 17 11 12 14 17 15 18 6 6 7 18 22 8 23 16 21 7 9 13 12 15 8 9 9 21 32 36 36 38 37 32 29 25 24 24 24 24 25 26 28 30 32 34
19 15 13 14 10 8 7 10 9 15 20 46 38 13 8 15 11 7 9 6 7 9 8 13 8 36 32 35 37 36 31 27 24 22 22 22 22 21 22 25 28 33 35 37
16 13 12 14 10 5 6 7 15 18 26 43 19 6 12 5 7 7 7 10 9 12 11 9 18 28 30 34 35 34 30 28 26 23 22 19 18 19 21 27 30 35 36 37
19 15 4 4 3 3 6 9 9 18 34 27 12 6 6 9 6 12 12 14 14 9 7 11 20 23 27 29 30 28 26 25 22 19 17 16 16 19 22 24 29 30 33 32
17 5 9 8 7 8 5 7 8 30 31 6 5 13 14 3 6 9 8 10 7 8 17 15 16 20 25 27 26 25 23 22 19 15 12 12 16 20 22 22 24 25 25 25
Wind_Direction_850mb
192 198 200 202 213 198 194 190 193 185 171 161 202 214 187 230 218 255 255 280 272 259 281 282 260 240 251 84 122 169 202 188 237 241 288 310 275 266 266 247 254 243 257 258
200 209 214 211 205 202 193 185 177 181 173 202 214 214 216 227 198 207 203 231 222 259 244 238 241 246 76 82 68 38 40 241 320 322 288 70 88 42 0 304 255 247 267 267
245 244 235 235 221 209 193 171 158 168 203 239 255 212 219 212 211 240 236 233 268 257 246 259 276 280 127 106 103 97 56 225 181 230 262 324 301 291 274 255 277 286 274 287
254 262 255 243 222 195 189 179 213 182 191 218 229 273 220 217 200 212 208 247 232 220 236 256 248 252 342 118 129 114 131 252 267 278 290 305 295 277 274 273 266 257 272 280
207 225 233 217 212 188 184 198 177 182 333 194 201 217 228 225 235 161 201 230 231 232 235 188 248 84 56 239 89 139 157 254 19 286 276 270 269 266 270 270 268 267 267 269
216 208 224 216 198 186 199 213 181 163 169 169 178 212 215 208 205 225 184 238 258 196 12 66 78 51 347 320 159 180 206 163 138 254 35 345 299 248 249 256 260 265 273 284
216 206 214 218 218 199 195 193 164 174 203 195 196 192 201 208 195 221 128 177 167 116 121 87 33 281 255 248 243 221 217 156 169 258 47 247 251 117 327 275 274 283 280 167
218 212 213 218 221 236 226 203 182 178 264 202 205 190 152 229 178 135 152 140 128 140 86 70 5 328 360 257 234 218 224 215 243 202 207 280 306 299 339 95 280 209 210 198
211 206 204 211 214 216 219 225 200 193 139 247 212 178 183 165 143 146 152 139 147 151 136 121 185 215 197 298 326 28 192 213 197 182 200 225 283 106 122 113 269 219 192 163
229 226 216 210 208 207 213 225 209 202 209 254 184 172 191 189 173 128 126 142 150 165 177 154 186 234 164 208 185 196 125 296 217 233 248 271 271 120 112 138 270 166 184 183
228 228 237 248 235 223 213 225 220 214 208 229 206 207 182 170 185 140 143 103 208 157 185 167 206 188 211 195 218 181 157 169 217 163 219 279 162 132 173 233 104 198 204 250
237 230 226 236 240 239 231 238 242 219 222 235 219 225 222 221 214 197 168 165 152 171 157 199 178 182 212 169 229 160 245 205 197 178 203 228 216 233 240 268 282 280 271 281
235 240 239 239 232 229 231 236 236 227 228 247 250 235 233 225 215 206 186 214 198 198 191 189 185 229 149 180 229 249 246 232 226 245 248 258 265 269 270 275 281 284 279 284
239 234 238 242 241 233 231 230 230 227 228 224 255 248 233 232 226 220 216 223 205 223 219 224 205 219 212 221 234 214 225 160 230 250 252 259 266 268 271 273 273 277 280 283
250 248 245 241 238 235 239 239 236 236 203 221 225 244 234 236 222 219 222 223 224 220 200 216 222 233 245 239 233 233 233 236 239 249 251 253 265 277 280 272 273 281 282 285
245 247 250 244 240 243 244 239 241 238 230 232 207 214 201 218 213 216 220 224 224 219 221 227 240 240 219 226 244 243 239 239 247 254 260 262 272 280 279 275 274 284 286 279
247 246 245 248 239 235 225 225 242 227 218 211 208 170 211 212 206 214 218 220 213 214 225 228 239 231 218 235 239 240 255 257 256 256 260 269 274 270 272 273 274 276 271 265
247 248 248 247 239 236 239 238 247 225 198 218 238 151 162 182 179 186 198 202 211 212 219 225 226 233 220 249 251 256 259 259 261 262 263 266 269 269 271 273 274 271 264 261
247 245 247 245 234 231 235 237 238 243 221 213 180 161 204 175 169 167 175 189 188 211 211 224 197 222 225 227 248 250 251 246 252 260 261 263 265 270 270 268 265 263 263 267
238 233 224 226 224 224 220 213 210 199 204 205 186 182 186 168 164 175 147 187 204 200 224 179 202 237 242 249 251 256 258 256 257 250 261 266 267 266 267 268 268 261 258 262
216 216 215 219 176 183 193 206 196 179 197 194 191 194 147 178 145 170 195 170 193 200 243 171 220 241 233 245 249 256 260 261 260 262 264 270 273 273 265 261 257 256 259 262
210 209 221 189 200 204 231 182 189 206 200 181 169 179 191 166 162 159 176 191 187 217 143 134 241 218 245 249 240 235 242 249 255 261 262 260 257 256 253 250 251 255 259 265
230 221 218 232 188 212 199 176 200 182 158 158 155 150 152 150 182 178 173 210 206 117 171 220 220 222 231 225 232 236 240 243 247 250 252 251 247 243 242 247 254 263 272 280
217 183 204 218 205 233 181 185 176 176 172 174 174 132 155 167 181 179 204 146 123 192 203 224 223 228 240 237 234 228 222 225 228 232 234 233 238 248 259 267 274 281 288 290
197 233 217 202 168 138 143 146 138 160 184 151 146 136 159 158 209 182 109 176 211 205 214 213 215 211 220 223 225 221 219 213 213 219 220 230 246 263 278 289 294 295 295 297
195 226 250 342 41 86 147 173 171 173 161 146 126 149 195 213 197 172 200 170 211 226 210 160 175 193 206 213 212 206 206 208 204 204 219 242 266 284 292 295 298 304 307 309
167 161 181 119 112 111 104 124 161 164 160 175 157 190 197 121 210 195 177 205 210 137 135 154 184 197 192 194 197 199 198 196 201 217 238 266 285 296 304 312 311 315 317 315